Location: doobydoo
(53.3403°N, 2.6908°W)
Time: 13:01:06
(UTC+00:00)

ISS - Pass Details

Date: 28 December 2021
Orbit: 413 x 422 km, 51.6° (Epoch: 19 January)

Event Time Altitude Azimuth Distance (km) Brightness Sun altitude
Exits shadow 07:29:45 - 272° (W) 1,671 -1.3 -7.8°
Reaches altitude 10° 07:30:09 10° 270° (W) 1,511 -1.5 -7.7°
Maximum altitude 07:33:29 55° 192° (SSW) 513 -3.2 -7.3°
Drops below altitude 10° 07:36:49 10° 114° (ESE) 1,512 0.8 -6.8°
Sets 07:38:56 0° 110° (ESE) 2,376 2.2 -6.6°
